Home > Weather > Lakewood > Past weeks

Flag for USA Past Weather in Lakewood, Colorado, USA — Yesterday and Last 2 Weeks

Now
64 °F

Passing clouds.


Feels Like: 64 °F
Forecast: 61 / 81 °F
Wind: 8 mph from South

Location: Centennial Airport

Current Time: Jun 30, 2016 at 2:45:30 AM

Latest Report: Jun 30, 2016 at 1:53 AM


Visibility: 10 mi

Pressure: 29.98 "Hg (24.60 "Hg at 1683m altitude)

Humidity: 61%

Dew Point: 50 °F

Location of LakewoodLocation

Past Weather in Lakewood — Graph

°F

Lakewood Temperature Yesterday

Maximum temperature yesterday: 88 °F (at 1:53 PM)
Minimum temperature yesterday: 55 °F (at 4:53 AM)
Average temperature yesterday: 69 °F

High & Low Weather Summary for the Past Weeks

 TemperatureHumidityPressure
High95 °F (Jun 21, 2:53 PM)87% (Jun 29, 1:53 AM)30.47 "Hg (Jun 29, 1:53 AM)
Low51 °F (Jun 15, 4:53 AM)7% (Jun 16, 1:53 PM)29.67 "Hg (Jun 15, 7:53 PM)
Average73 °F42%29.98 "Hg
* Reported Jun 15 12:53 AM — Jun 30 12:53 AM, Lakewood, Weather by CustomWeather, © 2016

Note: Actual official high and low records may vary slightly from our data, if they occured in-between our weather recording intervals... More about our weather records

Advertising

Lakewood Weather History for the Previous 24 Hours

Scroll right to see more
 ConditionsComfort  
Time TempWeatherWind HumidityBarometerVisibility
12:53 AM
Thu, Jun 30
61 °FPassing clouds.7 mph72%30.00 "Hg10 mi
11:53 PM
Wed, Jun 29
63 °FPassing clouds.7 mph63%30.04 "Hg10 mi
10:53 PM65 °FPassing clouds.7 mph63%30.07 "Hg10 mi
9:53 PM67 °FMostly cloudy.8 mph57%30.07 "Hg10 mi
8:53 PM69 °FBroken clouds.10 mph57%30.05 "Hg10 mi
7:53 PM71 °FBroken clouds.3 mph57%30.03 "Hg10 mi
6:53 PM71 °FBroken clouds.12 mph49%30.04 "Hg10 mi
5:53 PM68 °FLight rain. Cloudy.16 mph57%30.08 "Hg10 mi
4:53 PM78 °FBroken clouds.3 mph25%30.03 "Hg10 mi
3:53 PM84 °FThunderstorms. Broken clouds.16 mph25%29.98 "Hg10 mi
2:53 PM88 °FPartly sunny.6 mph18%29.96 "Hg10 mi
1:53 PM88 °FPartly sunny.8 mph18%29.97 "Hg10 mi
12:53 PM86 °FPartly sunny.7 mph20%29.98 "Hg10 mi
11:53 AM82 °FPartly sunny.6 mph31%30.01 "Hg10 mi
10:53 AM76 °FPartly sunny.No wind43%30.04 "Hg10 mi
9:53 AM73 °FPassing clouds.5 mph48%30.04 "Hg10 mi
8:53 AM68 °FPassing clouds.No wind61%30.06 "Hg10 mi
7:53 AM61 °FPassing clouds.6 mph75%30.09 "Hg10 mi
6:53 AM57 °FPassing clouds.7 mph83%30.07 "Hg10 mi
5:53 AM55 °FPassing clouds.6 mph87%30.07 "Hg10 mi
4:53 AM55 °FPassing clouds.7 mph87%30.07 "Hg10 mi
4:02 AM57 °FPassing clouds.3 mph83%30.29 "Hg10 mi
2:53 AM57 °FMostly cloudy.8 mph87%30.10 "Hg10 mi
Weather by CustomWeather, © 2016

See weather overviewHow to use our weather pages